Simultaneous Nadir Overpasses (SNOs) Predictions

Prediction of SNOs between AURA and NPP Satellite Orbit:

Table of predicted SNOs for the next 14.0 days since TLE Epoch: 5/18/2013
Index Date (AURA) Time (AURA) Lat,Lon (AURA) SZA (AURA ) Date (NPP) Time (NPP) Lat,Lon (NPP) SZA (NPP ) Distance(km) Time Diff (sec)
1 05/19/2013 03:42:13 -79.35,-159.79 106.99 05/19/2013 03:41:17 -79.35,-159.80 106.95 0.24 56
2 05/19/2013 04:31:33 79.57, 9.41 72.67 05/19/2013 04:31:55 79.57, 9.34 72.67 1.64 22
3 05/21/2013 19:58:36 -79.44, -43.26 107.67 05/21/2013 19:58:10 -79.44, -43.30 107.64 1.14 26
4 05/21/2013 20:47:57 79.63, 125.69 72.05 05/21/2013 20:48:49 79.62, 125.56 72.04 2.70 52
5 05/24/2013 11:25:38 79.27, -96.10 72.10 05/24/2013 11:24:25 79.28, -96.09 72.15 0.51 73
6 05/24/2013 12:14:58 -79.55, 73.36 108.31 05/24/2013 12:15:02 -79.56, 73.46 108.34 2.28 4
7 05/27/2013 03:41:59 79.39, 20.55 71.48 05/27/2013 03:41:17 79.40, 20.61 71.50 1.49 42
8 05/27/2013 04:31:21 -79.58,-170.48 108.81 05/27/2013 04:31:57 -79.57,-170.61 108.82 2.81 36
9 05/29/2013 19:58:19 79.48, 137.02 70.96 05/29/2013 19:58:09 79.48, 137.04 70.96 0.44 10




NCC Satellite Simultaneous Nadir Overpasses (SNOs) Prediction Service
